Location: Cary
(35.7910°N, 78.7810°W)
Time: 09:06:39
(UTC-05:00)

N. Korean satellite - Visible Passes

Search period start: 28 November 2021 00:00
Search period end: 08 December 2021 00:00
Orbit: 447 x 495 km, 97.3° (Epoch: 27 November)

Date Brightness Start Highest point End Pass type
(mag) Time Alt. Az. Time Alt. Az. Time Alt. Az.
28 Nov 6.9 05:54:29 10° N 05:57:37 35° WNW 06:00:43 10° SW visible
29 Nov 6.4 05:25:50 10° NNE 05:29:14 81° ESE 05:32:35 10° S visible
29 Nov 9.6 17:30:35 10° SSW 17:33:23 21° W 17:36:11 10° NW visible
30 Nov 8.4 04:57:44 10° NE 05:00:43 29° E 05:03:41 10° SSE visible
30 Nov 8.3 06:32:18 10° NW 06:33:36 12° WNW 06:34:53 10° W visible
01 Dec 9.8 04:30:48 10° ENE 04:32:06 12° E 04:33:26 10° ESE visible
01 Dec 7.3 06:02:25 10° NNW 06:05:20 27° WNW 06:08:15 10° SW visible
02 Dec 6.2 05:33:35 10° N 05:36:58 75° WNW 05:40:19 10° SSW visible
02 Dec 9.7 17:38:49 10° SW 17:41:11 17° W 17:43:32 10° NW visible
03 Dec 7.9 05:05:18 10° NNE 05:08:28 37° E 05:11:38 10° SSE visible
04 Dec 9.5 04:37:49 10° ENE 04:39:52 15° E 04:41:54 10° SE visible
04 Dec 7.6 06:10:21 10° NNW 06:13:00 22° WNW 06:15:38 10° WSW visible
05 Dec 6.4 05:41:18 10° N 05:44:37 56° WNW 05:47:56 10° SSW visible
05 Dec 9.9 17:47:11 10° WSW 17:48:55 13° W 17:50:38 10° WNW visible
06 Dec 7.3 05:12:50 10° NNE 05:16:08 50° E 05:19:25 10° S visible
07 Dec 9.1 04:45:02 10° NE 04:47:32 19° E 04:50:02 10° SE visible
07 Dec 7.9 06:18:17 10° NNW 06:20:34 17° WNW 06:22:52 10° WSW visible
